Airfield :
LOGIN :

Register | Disclaimer

   EN    FR    IT 

 










Legend :    VFR   Marginal VFR   IFR   Intensive IFR   Very Intensive IFR
Visi :
Ceiling :
>= 8 km
>= 3000ft
5 to 8 km
1000 to 3000 ft
1500m to 5 km
500 to 1000 ft
800 to 1500m
200 to 500 ft
< 800m
< 200 ft
Symbols :   Thunderstorms  Fog  Heavy snow  Heavy precipitations  Wind > 20 kt
SIGMETs :     Misc.  Thunderstorms  Icing  Turbulence  Mountain Waves  Volcanic Ashes







- Airport Elevation : 2945 ft
- IATA code : RGS


LEBG - Burgos

CURRENT METAR :
  • 210800Z 20012KT 9999 BKN010 OVC012 14/13 Q1024

EXPIRED METARs :
  • 210730Z 19011KT 9999 -DZ BKN010 OVC015 14/13 Q1023
  • 210700Z 20011KT 9999 SCT008 BKN013 14/13 Q1023
  • 210630Z 20010KT 9999 BKN011 BKN027 14/12 Q1023
  • 210600Z 20010KT 170V230 9999 SCT011 BKN015 14/12 Q1023

TAF TAF LEBG
Valid from the 21 at 09:00 until the 21 at 18:00 UTC


210800Z 2109/2118 24010KT 9999 SCT010
TEMPO 2109/2111 3000 RA
No reported NOTAMs for that airfield.



MET'MAP, your aeronautical weather chart ! - Copyright ORBIFLY December 2007 - Disclaimer

ORBIFLY MET'MAP TEAM :

Programming & Development : Alexandra Zaïnal
Concept & Development : Baudouin d'Aumeries
Co-Development & Prog : Marc-Olivier Méhu
Technical & hardware support : Manuel Goepfert

Contact : metmap@orbifly.com




SOURCES & CREDITS :

   NOAA